M0OAB-1 Weather Reports


Display with metric or nautical units.
time (UTC)temp
F
wind
direction
speed
MPH
gust
MPH
rain 1hr
in
rain 24hr
in
rain mn
in
humidity
%
barometer
mb
20260506001803 50 329 5.0 8.0 0.00 0.00 0.00 77 998.9
20260506001603 50 338 4.0 8.0 0.00 0.00 0.00 77 998.9
20260506001403 50 341 4.0 7.0 0.00 0.00 0.00 77 998.9
20260506001004 50 342 5.0 8.0 0.00 0.00 0.00 77 998.8
20260506000804 50 345 5.0 8.0 0.00 0.00 0.00 77 998.8
20260506000603 50 339 6.0 8.0 0.00 0.00 0.00 76 998.9
20260506000403 50 342 6.0 8.0 0.00 0.00 0.00 76 999.0
20260506000205 50 341 6.0 8.0 0.00 0.00 0.00 76 999.0
20260506000004 50 340 6.0 8.0 0.00 0.00 0.00 76 999.1
20260505235803 50 323 5.0 8.0 0.00 0.00 0.00 76 998.9
20260505235403 50 304 4.0 7.0 0.00 0.00 0.00 76 999.0
20260505235204 50 294 3.0 6.0 0.00 0.00 0.00 75 998.9
20260505235004 50 303 4.0 7.0 0.00 0.00 0.00 75 998.8
20260505234803 50 308 4.0 7.0 0.00 0.00 0.00 75 998.8
20260505234603 50 318 5.0 8.0 0.00 0.00 0.00 75 998.8
20260505234404 50 322 5.0 8.0 0.00 0.00 0.00 75 998.9
20260505234204 50 322 5.0 8.0 0.00 0.00 0.00 75 998.9
20260505234003 50 339 5.0 8.0 0.00 0.00 0.00 75 998.9
20260505233603 50 12 5.0 11.0 0.00 0.00 0.00 75 999.0
20260505233404 50 18 5.0 11.0 0.00 0.00 0.00 75 999.0
20260505233203 50 13 5.0 11.0 0.00 0.00 0.00 75 998.9
20260505233003 50 359 6.0 11.0 0.00 0.00 0.00 75 999.1
20260505232804 50 346 6.0 11.0 0.00 0.00 0.00 74 999.0
20260505232604 50 328 5.0 8.0 0.00 0.00 0.00 74 999.0
20260505232203 51 322 4.0 8.0 0.00 0.00 0.00 75 999.1
20260505232004 51 325 4.0 8.0 0.00 0.00 0.00 75 999.0
20260505231804 51 333 4.0 8.0 0.00 0.00 0.00 75 999.0
20260505231403 51 345 4.0 6.0 0.00 0.00 0.00 75 998.9
20260505231203 51 341 4.0 6.0 0.00 0.00 0.00 75 999.1
20260505230804 51 352 3.0 6.0 0.00 0.00 0.00 75 999.2
20260505230604 51 340 3.0 6.0 0.00 0.00 0.00 75 999.1
20260505230403 51 350 3.0 4.0 0.00 0.00 0.00 74 999.1
20260505230203 51 2 2.0 4.0 0.00 0.00 0.00 74 999.2
20260505230005 51 331 2.0 4.0 0.00 0.00 0.00 74 999.3
20260505225803 51 340 2.0 3.0 0.00 0.00 0.00 74 999.2
20260505225603 51 297 2.0 2.0 0.00 0.00 0.00 74 999.3
20260505225404 51 307 2.0 3.0 0.00 0.00 0.00 74 999.3
20260505225003 51 25 2.0 4.0 0.00 0.00 0.00 74 999.3
20260505224803 51 36 3.0 4.0 0.00 0.00 0.00 74 999.2
20260505224404 51 54 3.0 4.0 0.00 0.00 0.00 74 999.2
20260505224204 51 96 3.0 4.0 0.00 0.00 0.00 74 999.4
20260505224004 51 144 3.0 4.0 0.00 0.00 0.00 74 999.1
20260505223803 51 117 3.0 4.0 0.00 0.00 0.00 74 999.4
20260505223603 51 143 3.0 5.0 0.00 0.00 0.00 74 999.4
20260505223404 51 155 3.0 5.0 0.00 0.00 0.00 74 999.2
20260505222803 51 343 3.0 5.0 0.00 0.00 0.00 74 999.3
20260505222603 51 333 3.0 5.0 0.00 0.00 0.00 74 999.5
20260505222404 51 335 4.0 11.0 0.00 0.00 0.00 74 999.5
20260505222203 51 313 4.0 11.0 0.00 0.00 0.00 74 999.5
20260505222003 51 303 4.0 11.0 0.00 0.00 0.00 74 999.4
20260505221803 51 307 4.0 11.0 0.00 0.00 0.00 74 999.4
20260505221604 51 307 4.0 11.0 0.00 0.00 0.00 74 999.5
20260505221403 51 320 4.0 11.0 0.00 0.00 0.00 74 999.6
20260505221203 51 336 3.0 5.0 0.00 0.00 0.00 74 999.4
20260505221004 51 333 4.0 7.0 0.00 0.00 0.00 74 999.3
20260505220804 52 339 4.0 7.0 0.00 0.00 0.00 74 999.6
20260505220603 52 346 4.0 7.0 0.00 0.00 0.00 74 999.4
20260505220403 52 356 4.0 7.0 0.00 0.00 0.00 73 999.5
20260505220204 52 15 4.0 7.0 0.00 0.00 0.00 73 999.3
20260505220003 52 16 3.0 7.0 0.00 0.00 0.00 73 999.4
20260505215803 52 9 3.0 5.0 0.00 0.00 0.00 73 999.4
20260505215604 52 345 3.0 5.0 0.00 0.00 0.00 73 999.3
20260505215404 52 355 3.0 5.0 0.00 0.00 0.00 73 999.2
20260505215003 52 8 4.0 6.0 0.00 0.00 0.00 73 999.3
20260505214803 52 351 4.0 6.0 0.00 0.00 0.00 73 999.3
20260505214604 52 10 4.0 6.0 0.00 0.00 0.00 73 999.3
20260505214404 52 2 3.0 6.0 0.00 0.00 0.00 73 999.3
20260505214203 52 329 4.0 7.0 0.00 0.00 0.00 73 999.1
20260505214003 52 324 4.0 7.0 0.00 0.00 0.00 74 999.2
20260505213604 52 280 4.0 7.0 0.00 0.00 0.00 74 999.2
20260505213404 52 301 5.0 9.0 0.00 0.00 0.00 75 999.2
20260505213203 53 327 4.0 9.0 0.00 0.00 0.00 75 999.2
20260505213004 53 7 5.0 9.0 0.00 0.00 0.00 76 999.2
20260505212804 53 3 5.0 9.0 0.00 0.00 0.00 77 999.2
20260505212603 53 2 4.0 9.0 0.00 0.00 0.00 78 999.1
20260505212405 53 16 4.0 5.0 0.00 0.00 0.00 78 999.1
20260505212005 53 11 3.0 4.0 0.00 0.00 0.00 79 999.1
20260505211805 53 30 2.0 4.0 0.00 0.00 0.00 79 999.2
20260505211605 53 33 2.0 4.0 0.00 0.00 0.00 79 999.2
20260505211204 53 44 1.0 3.0 0.00 0.00 0.00 79 999.0
20260505211005 53 341 1.0 3.0 0.00 0.00 0.00 80 999.0
20260505210805 53 284 1.0 3.0 0.00 0.00 0.00 80 999.2
20260505210605 53 264 1.0 3.0 0.00 0.00 0.00 80 999.0
20260505210405 53 145 1.0 2.0 0.00 0.00 0.00 80 998.9
20260505210205 53 160 1.0 2.0 0.00 0.00 0.00 80 999.0
20260505210005 53 149 1.0 2.0 0.00 0.00 0.00 80 999.0
20260505205805 53 118 2.0 2.0 0.00 0.00 0.00 80 998.8
20260505205605 53 108 2.0 2.0 0.00 0.00 0.00 80 998.9
20260505205205 53 105 2.0 2.0 0.00 0.00 0.00 80 999.0
20260505205006 53 59 1.0 2.0 0.00 0.00 0.00 80 998.9
20260505204805 53 327 1.0 2.0 0.00 0.00 0.00 80 998.8
20260505204605 53 328 1.0 2.0 0.00 0.00 0.00 80 999.0
20260505204405 53 248 1.0 2.0 0.00 0.00 0.00 80 999.0
20260505204005 53 318 1.0 2.0 0.00 0.00 0.00 80 998.9
20260505203805 53 85 2.0 2.0 0.00 0.00 0.00 80 998.9
20260505203605 53 28 2.0 2.0 0.00 0.00 0.00 80 998.9
20260505203205 53 53 2.0 3.0 0.00 0.00 0.00 79 998.9
20260505203005 53 51 2.0 3.0 0.00 0.00 0.00 79 999.0
20260505202805 53 56 2.0 3.0 0.00 0.00 0.00 79 998.9
20260505202605 53 70 2.0 4.0 0.00 0.00 0.00 78 998.9
20260505202405 53 77 2.0 4.0 0.00 0.00 0.00 78 998.8
20260505201805 53 81 3.0 4.0 0.00 0.00 0.00 77 998.8
20260505201405 54 82 2.0 3.0 0.00 0.00 0.00 75 998.8
20260505201005 54 88 2.0 3.0 0.00 0.00 0.00 74 998.7
20260505200605 54 45 3.0 4.0 0.00 0.00 0.00 73 998.9
20260505200405 54 65 3.0 4.0 0.00 0.00 0.00 72 998.8
20260505200205 54 355 3.0 4.0 0.00 0.00 0.00 70 998.7
20260505200005 54 350 4.0 8.0 0.00 0.00 0.00 70 998.7
20260505195805 55 343 4.0 8.0 0.00 0.00 0.00 69 998.8
20260505195605 55 183 4.0 8.0 0.00 0.00 0.00 69 998.7
20260505195405 55 310 4.0 8.0 0.00 0.00 0.00 68 998.7
20260505195205 55 83 4.0 8.0 0.00 0.00 0.00 68 998.7
20260505194605 55 69 4.0 5.0 0.00 0.00 0.00 67 998.4
20260505194405 55 53 4.0 5.0 0.00 0.00 0.00 67 998.5
20260505194205 55 35 4.0 5.0 0.00 0.00 0.00 67 998.5
20260505194005 55 31 3.0 5.0 0.00 0.00 0.00 66 998.4
20260505193805 55 35 3.0 5.0 0.00 0.00 0.00 65 998.4
20260505193605 56 38 2.0 5.0 0.00 0.00 0.00 65 998.5
20260505193205 56 73 1.0 3.0 0.00 0.00 0.00 65 998.4
20260505192805 56 74 0.0 2.0 0.00 0.00 0.00 64 998.4
20260505192605 56 316 1.0 2.0 0.00 0.00 0.00 64 998.3
20260505192405 56 331 1.0 2.0 0.00 0.00 0.00 64 998.2
20260505192205 56 331 1.0 2.0 0.00 0.00 0.00 64 998.1
20260505192005 56 313 1.0 2.0 0.00 0.00 0.00 64 998.3
20260505191804 56 342 1.0 3.0 0.00 0.00 0.00 64 998.0
20260505191605 56 17 1.0 3.0 0.00 0.00 0.00 64 998.0
20260505191405 56 25 1.0 3.0 0.00 0.00 0.00 63 998.1
20260505191205 56 25 1.0 3.0 0.00 0.00 0.00 63 998.0
20260505190805 56 81 1.0 2.0 0.00 0.00 0.00 63 998.1
20260505190605 56 74 1.0 2.0 0.00 0.00 0.00 63 998.0
20260505190205 56 69 1.0 2.0 0.00 0.00 0.00 63 997.9
20260505190005 56 84 1.0 2.0 0.00 0.00 0.00 63 998.0
20260505185805 56 77 0.0 2.0 0.00 0.00 0.00 63 997.9
20260505185405 56 97 0.0 2.0 0.00 0.00 0.00 63 997.9
20260505185005 56 55 0.0 2.0 0.00 0.00 0.00 63 997.8
20260505184805 56 48 0.0 2.0 0.00 0.00 0.00 63 997.9
20260505184605 56 48 0.0 2.0 0.00 0.00 0.00 63 997.9
20260505184205 56 338 0.0 2.0 0.00 0.00 0.00 63 997.7
20260505183805 56 314 0.0 2.0 0.00 0.00 0.00 62 997.7
20260505183605 56 314 0.0 2.0 0.00 0.00 0.00 62 997.8
20260505183405 56 314 0.0 2.0 0.00 0.00 0.00 62 997.7
20260505183205 56 135 0.0 1.0 0.00 0.00 0.00 62 997.8
20260505183005 56 0 0.0 0.0 0.00 0.00 0.00 62 997.7
20260505182805 56 0 0.0 0.0 0.00 0.00 0.00 61 997.7
20260505182605 57 0 0.0 0.0 0.00 0.00 0.00 61 997.7
20260505182405 57 0 0.0 0.0 0.00 0.00 0.00 61 997.9
20260505182004 57 0 0.0 0.0 0.00 0.00 0.00 61 997.7
20260505181805 57 28 0.0 1.0 0.00 0.00 0.00 61 997.7
20260505181404 57 40 0.0 1.0 0.00 0.00 0.00 60 997.7
20260505181005 57 40 0.0 1.0 0.00 0.00 0.00 60 997.5
20260505180805 57 56 0.0 1.0 0.00 0.00 0.00 60 997.8
20260505180605 57 78 0.0 1.0 0.00 0.00 0.00 60 997.7
20260505180404 57 0 0.0 0.0 0.00 0.00 0.00 60 997.6
20260505180205 57 0 0.0 0.0 0.00 0.00 0.00 60 997.6
20260505180005 57 0 0.0 0.0 0.00 0.00 0.00 60 997.7
20260505175805 57 0 0.0 0.0 0.00 0.00 0.00 60 997.7
20260505175405 57 31 0.0 2.0 0.00 0.00 0.00 60 997.6
20260505175205 57 35 0.0 2.0 0.00 0.00 0.00 60 997.7
20260505175005 57 35 0.0 2.0 0.00 0.00 0.00 60 997.7
20260505174804 58 1 0.0 2.0 0.00 0.00 0.00 59 997.6
20260505174605 58 9 1.0 2.0 0.00 0.00 0.00 59 997.6
20260505174005 58 341 1.0 2.0 0.00 0.00 0.00 58 997.6
20260505173605 58 334 0.0 2.0 0.00 0.00 0.00 58 997.6
20260505173405 58 311 0.0 2.0 0.00 0.00 0.00 58 997.6
20260505173204 58 181 0.0 1.0 0.00 0.00 0.00 58 997.6
20260505173005 58 0 0.0 0.0 0.00 0.00 0.00 58 997.7
20260505172805 58 157 0.0 1.0 0.00 0.00 0.00 58 997.5
20260505172605 58 157 0.0 1.0 0.00 0.00 0.00 58 997.4
20260505172405 58 157 0.0 1.0 0.00 0.00 0.00 58 997.7
20260505172005 58 10 1.0 3.0 0.00 0.00 0.00 57 997.5
20260505171805 58 18 1.0 3.0 0.00 0.00 0.00 57 997.6
20260505171604 59 27 1.0 3.0 0.00 0.00 0.00 56 997.7
20260505171405 59 27 1.0 3.0 0.00 0.00 0.00 56 997.7
20260505171205 59 35 1.0 3.0 0.00 0.00 0.00 56 997.7
20260505171005 59 61 1.0 3.0 0.00 0.00 0.00 56 997.7
20260505170804 59 143 1.0 2.0 0.00 0.00 0.00 56 997.7
20260505170605 59 183 1.0 2.0 0.00 0.00 0.00 57 997.7
20260505170405 59 183 1.0 2.0 0.00 0.00 0.00 57 997.8
20260505170205 59 189 1.0 2.0 0.00 0.00 0.00 56 997.8
20260505170005 60 193 1.0 2.0 0.00 0.00 0.00 55 997.8
20260505165805 60 170 1.0 2.0 0.00 0.00 0.00 55 997.8
20260505165405 60 59 1.0 2.0 0.00 0.00 0.00 55 997.8
20260505165205 60 82 1.0 2.0 0.00 0.00 0.00 55 997.7
20260505165005 60 11 1.0 2.0 0.00 0.00 0.00 55 997.7
20260505164804 60 5 1.0 2.0 0.00 0.00 0.00 54 997.7
20260505164405 61 185 1.0 2.0 0.00 0.00 0.00 54 997.7
20260505164205 61 184 1.0 2.0 0.00 0.00 0.00 54 997.7
20260505164005 61 184 1.0 2.0 0.00 0.00 0.00 53 997.8
20260505163605 62 186 1.0 2.0 0.00 0.00 0.00 54 997.7
20260505163205 62 141 0.0 1.0 0.00 0.00 0.00 54 997.7
20260505163005 62 175 1.0 4.0 0.00 0.00 0.00 54 997.7
20260505162605 62 181 1.0 4.0 0.00 0.00 0.00 54 997.7
20260505162405 62 178 1.0 4.0 0.00 0.00 0.00 54 997.7
20260505162205 62 177 1.0 4.0 0.00 0.00 0.00 53 997.8
20260505161605 62 177 1.0 2.0 0.00 0.00 0.00 53 997.8
20260505161404 62 181 1.0 2.0 0.00 0.00 0.00 53 997.6
20260505161005 62 192 1.0 4.0 0.00 0.00 0.00 54 997.6
20260505160805 61 223 1.0 4.0 0.00 0.00 0.00 54 997.7
20260505160405 61 189 2.0 4.0 0.00 0.00 0.00 53 997.7
20260505160205 61 203 1.0 4.0 0.00 0.00 0.00 53 997.7
20260505153205 64 296 1.0 2.0 0.00 0.00 0.00 48 997.7
20260505153005 64 303 1.0 2.0 0.00 0.00 0.00 47 997.7
20260505152805 64 318 2.0 6.0 0.00 0.00 0.00 46 997.7
20260505152604 63 323 3.0 6.0 0.00 0.00 0.00 48 997.6
20260505152405 63 331 3.0 6.0 0.00 0.00 0.00 47 997.6
20260505152204 64 343 4.0 6.0 0.00 0.00 0.00 42 997.5
20260505152005 64 356 4.0 6.0 0.00 0.00 0.00 41 997.6
20260505151805 64 25 4.0 6.0 0.00 0.00 0.00 41 997.6
20260505151604 64 103 3.0 4.0 0.00 0.00 0.00 42 997.8
20260505151405 64 117 3.0 4.0 0.00 0.00 0.00 42 997.7
20260505151205 64 128 2.0 4.0 0.00 0.00 0.00 42 997.7
20260505151004 64 140 2.0 4.0 0.00 0.00 0.00 42 997.7
20260505150804 64 131 2.0 3.0 0.00 0.00 0.00 43 997.7
20260505150605 64 117 2.0 3.0 0.00 0.00 0.00 42 997.7
20260505150405 64 132 2.0 3.0 0.00 0.00 0.00 42 997.7
20260505150205 64 108 3.0 4.0 0.00 0.00 0.00 42 997.6
20260505140605 64 336 4.0 5.0 0.00 0.00 0.00 41 998.0
20260505140404 65 345 3.0 5.0 0.00 0.00 0.00 42 997.8
20260505140204 65 340 2.0 5.0 0.00 0.00 0.00 41 998.0
20260505130205 65 61 3.0 4.0 0.00 0.00 0.00 43 998.4
20260505124804 65 353 3.0 7.0 0.00 0.00 0.00 43 998.4
20260505124605 65 355 3.0 7.0 0.00 0.00 0.00 42 998.3
20260505124405 65 7 3.0 7.0 0.00 0.00 0.00 41 998.3
20260505124205 66 10 3.0 7.0 0.00 0.00 0.00 41 998.4
20260505124004 66 5 3.0 5.0 0.00 0.00 0.00 42 998.3
20260505123804 66 76 2.0 5.0 0.00 0.00 0.00 42 998.4
20260505123605 66 12 2.0 4.0 0.00 0.00 0.00 43 998.3
20260505123404 66 359 2.0 4.0 0.00 0.00 0.00 42 998.4
20260505123205 66 351 2.0 4.0 0.00 0.00 0.00 43 998.4
20260505123005 65 17 1.0 3.0 0.00 0.00 0.00 44 998.4
20260505122804 65 342 2.0 7.0 0.00 0.00 0.00 44 998.4
20260505122604 65 349 3.0 7.0 0.00 0.00 0.00 44 998.4
20260505122405 65 343 4.0 7.0 0.00 0.00 0.00 43 998.4
20260505122205 65 338 4.0 7.0 0.00 0.00 0.00 41 998.3
20260505122004 65 341 4.0 7.0 0.00 0.00 0.00 41 998.4
20260505121804 65 336 3.0 6.0 0.00 0.00 0.00 41 998.3
20260505121605 65 214 3.0 5.0 0.00 0.00 0.00 43 998.4
20260505121205 64 79 3.0 5.0 0.00 0.00 0.00 44 998.2
20260505121004 64 75 3.0 5.0 0.00 0.00 0.00 43 998.4
20260505120804 64 68 3.0 5.0 0.00 0.00 0.00 42 998.3
20260505120605 64 11 3.0 6.0 0.00 0.00 0.00 42 998.5
20260505120204 64 355 4.0 8.0 0.00 0.00 0.00 42 998.4
20260505120005 64 348 5.0 8.0 0.00 0.00 0.00 41 998.3
20260505115805 64 344 6.0 8.0 0.00 0.00 0.00 40 998.4
20260505115604 64 346 5.0 8.0 0.00 0.00 0.00 40 998.4
20260505115404 64 337 5.0 8.0 0.00 0.00 0.00 40 998.3
20260505115204 64 334 5.0 8.0 0.00 0.00 0.00 41 998.3
20260505115005 64 342 4.0 8.0 0.00 0.00 0.00 41 998.5
20260505114805 64 353 4.0 8.0 0.00 0.00 0.00 42 998.4
20260505114604 64 336 4.0 8.0 0.00 0.00 0.00 41 998.5
20260505114404 64 350 4.0 5.0 0.00 0.00 0.00 42 998.5
20260505114205 64 355 3.0 5.0 0.00 0.00 0.00 41 998.5
20260505114005 64 9 3.0 8.0 0.00 0.00 0.00 40 998.5
20260505113804 65 23 3.0 8.0 0.00 0.00 0.00 40 998.5
20260505113604 65 54 3.0 8.0 0.00 0.00 0.00 41 998.5
20260505113205 65 76 3.0 8.0 0.00 0.00 0.00 41 998.5
20260505112804 65 66 2.0 3.0 0.00 0.00 0.00 43 998.6
20260505112604 65 100 3.0 4.0 0.00 0.00 0.00 42 998.6
20260505112405 65 106 3.0 4.0 0.00 0.00 0.00 42 998.6
20260505112205 65 86 3.0 4.0 0.00 0.00 0.00 44 998.5
20260505111804 64 94 4.0 4.0 0.00 0.00 0.00 44 998.8
20260505111604 64 105 4.0 4.0 0.00 0.00 0.00 44 998.7
20260505111405 63 76 4.0 11.0 0.00 0.00 0.00 49 998.7
20260505111205 63 21 6.0 11.0 0.00 0.00 0.00 48 998.7
20260505111004 63 9 6.0 11.0 0.00 0.00 0.00 48 998.8
20260505110604 63 15 6.0 11.0 0.00 0.00 0.00 47 998.7
20260505110405 63 13 5.0 11.0 0.00 0.00 0.00 46 998.8
20260505110205 64 93 4.0 9.0 0.00 0.00 0.00 46 998.8
20260505102205 60 343 6.0 9.0 0.00 0.00 0.00 59 998.8
20260505101804 60 338 5.0 9.0 0.00 0.00 0.00 60 998.9
20260505101604 60 341 5.0 7.0 0.00 0.00 0.00 60 999.0
20260505101405 60 339 6.0 9.0 0.00 0.00 0.00 60 998.9
20260505101204 60 336 6.0 9.0 0.00 0.00 0.00 60 998.9
20260505101004 60 337 7.0 9.0 0.00 0.00 0.00 61 998.9
20260505100605 59 329 8.0 11.0 0.00 0.00 0.00 60 999.0
20260505100404 60 333 8.0 11.0 0.00 0.00 0.00 60 999.1
20260505095804 60 337 7.0 11.0 0.00 0.00 0.00 59 999.0
20260505095605 60 348 6.0 11.0 0.00 0.00 0.00 60 999.1
20260505095405 60 339 5.0 8.0 0.00 0.00 0.00 60 999.0
20260505095004 60 326 6.0 8.0 0.00 0.00 0.00 60 999.0
20260505094804 60 323 5.0 8.0 0.00 0.00 0.00 60 999.0
20260505094405 61 344 6.0 8.0 0.00 0.00 0.00 58 999.0
20260505094004 61 66 5.0 8.0 0.00 0.00 0.00 60 999.1
20260505093805 61 90 5.0 8.0 0.00 0.00 0.00 60 998.9
20260505093404 62 43 4.0 7.0 0.00 0.00 0.00 60 999.1
20260505093004 62 20 3.0 6.0 0.00 0.00 0.00 61 999.0
20260505092805 62 42 3.0 5.0 0.00 0.00 0.00 61 999.1
20260505092605 62 48 3.0 5.0 0.00 0.00 0.00 61 998.9
20260505092404 62 42 3.0 4.0 0.00 0.00 0.00 61 999.2
20260505092204 62 60 3.0 4.0 0.00 0.00 0.00 61 999.0
20260505092005 62 60 4.0 4.0 0.00 0.00 0.00 61 999.1
20260505091804 62 47 4.0 6.0 0.00 0.00 0.00 62 999.1
20260505091604 61 69 4.0 6.0 0.00 0.00 0.00 63 999.0
20260505091405 61 50 4.0 6.0 0.00 0.00 0.00 62 999.0
20260505091204 61 31 4.0 6.0 0.00 0.00 0.00 62 998.9
20260505091004 60 20 4.0 8.0 0.00 0.00 0.00 62 999.1
20260505090804 60 41 4.0 8.0 0.00 0.00 0.00 62 999.0
20260505090205 60 7 4.0 8.0 0.00 0.00 0.00 62 999.1
20260505090005 60 22 3.0 5.0 0.00 0.00 0.00 63 998.9
20260505085805 60 14 3.0 5.0 0.00 0.00 0.00 64 999.0
20260505085605 60 351 3.0 5.0 0.00 0.00 0.00 64 999.0
20260505085404 59 302 3.0 4.0 0.00 0.00 0.00 64 999.0
20260505085204 59 264 3.0 5.0 0.00 0.00 0.00 63 999.0
20260505085005 59 320 4.0 7.0 0.00 0.00 0.00 63 999.1
20260505084805 59 331 4.0 7.0 0.00 0.00 0.00 63 999.1
20260505084605 59 356 4.0 7.0 0.00 0.00 0.00 63 999.2
20260505084404 59 12 5.0 7.0 0.00 0.00 0.00 63 999.1
20260505084204 60 23 4.0 7.0 0.00 0.00 0.00 63 999.1
20260505084005 60 32 4.0 6.0 0.00 0.00 0.00 63 999.2
20260505083805 60 47 4.0 6.0 0.00 0.00 0.00 64 999.0
20260505083404 59 151 3.0 4.0 0.00 0.00 0.00 68 999.0
20260505083204 59 202 3.0 4.0 0.00 0.00 0.00 69 999.1
20260505083005 58 214 3.0 4.0 0.00 0.00 0.00 70 999.0
20260505082804 58 270 3.0 4.0 0.00 0.00 0.00 69 999.1
20260505082604 57 274 4.0 7.0 0.00 0.00 0.00 68 998.9
20260505082405 57 315 4.0 7.0 0.00 0.00 0.00 68 998.9
20260505082204 57 338 4.0 7.0 0.00 0.00 0.00 67 998.9
20260505082004 57 341 5.0 7.0 0.00 0.00 0.00 67 999.0
20260505081804 57 341 5.0 7.0 0.00 0.00 0.00 67 999.1
20260505081604 57 349 4.0 7.0 0.00 0.00 0.00 68 998.9
20260505081404 57 336 5.0 7.0 0.00 0.00 0.00 69 999.1
20260505081204 56 358 5.0 7.0 0.00 0.00 0.00 69 999.0
20260505081005 56 352 5.0 9.0 0.00 0.00 0.00 69 998.9
20260505080804 56 347 6.0 9.0 0.00 0.00 0.00 70 999.2
20260505080604 56 336 6.0 9.0 0.00 0.00 0.00 70 999.0
20260505080404 56 350 5.0 9.0 0.00 0.00 0.00 70 999.0
20260505080204 56 351 5.0 9.0 0.00 0.00 0.00 70 999.0
20260505080005 56 340 5.0 8.0 0.00 0.00 0.00 70 998.9
20260505075804 55 339 5.0 8.0 0.00 0.00 0.00 70 999.1
20260505075604 55 345 4.0 8.0 0.00 0.00 0.00 71 999.1
20260505075405 55 345 4.0 8.0 0.00 0.00 0.00 71 999.0
20260505075205 55 347 4.0 8.0 0.00 0.00 0.00 71 999.1
20260505075004 55 10 3.0 4.0 0.00 0.00 0.00 72 999.1
20260505074804 55 357 4.0 6.0 0.00 0.00 0.00 71 999.2
20260505074604 55 2 4.0 6.0 0.00 0.00 0.00 71 999.0
20260505074404 55 346 4.0 6.0 0.00 0.00 0.00 71 999.0
20260505074205 55 335 4.0 6.0 0.00 0.00 0.00 72 999.1
20260505074004 55 325 4.0 6.0 0.00 0.00 0.00 72 999.0
20260505073804 55 314 3.0 5.0 0.00 0.00 0.00 72 999.0
20260505073604 55 307 3.0 5.0 0.00 0.00 0.00 72 999.2
20260505073205 54 328 4.0 8.0 0.00 0.00 0.00 72 999.0
20260505073004 54 324 5.0 8.0 0.00 0.00 0.00 75 999.1
20260505072804 54 321 6.0 8.0 0.00 0.00 0.00 74 999.1
20260505072604 54 321 6.0 8.0 0.00 0.00 0.00 74 999.0
20260505072405 54 328 6.0 8.0 0.00 0.00 0.00 74 999.0
20260505072204 54 325 5.0 7.0 0.00 0.00 0.00 74 999.0
20260505072004 54 332 5.0 7.0 0.00 0.00 0.00 74 999.1
20260505071805 54 338 5.0 5.0 0.00 0.00 0.00 72 999.0
20260505071605 54 336 5.0 8.0 0.00 0.00 0.00 72 999.1
20260505071204 54 355 4.0 8.0 0.00 0.00 0.00 72 999.2
20260505071005 54 348 4.0 8.0 0.00 0.00 0.00 76 999.0
20260505070804 54 2 4.0 8.0 0.00 0.00 0.00 77 999.1
20260505070604 54 23 4.0 9.0 0.00 0.00 0.00 77 999.2
20260505070404 54 18 4.0 9.0 0.00 0.00 0.00 78 999.1
20260505070205 54 4 4.0 9.0 0.00 0.00 0.00 78 999.1
20260505070005 54 16 3.0 9.0 0.00 0.00 0.00 78 999.2
20260505065804 54 14 3.0 9.0 0.00 0.00 0.00 79 999.1
20260505065604 54 347 2.0 4.0 0.00 0.00 0.00 80 999.1
20260505065405 53 312 2.0 4.0 0.00 0.00 0.00 80 999.0
20260505065204 53 283 2.0 4.0 0.00 0.00 0.00 80 999.3
20260505065004 53 309 3.0 6.0 0.00 0.00 0.00 80 999.2
20260505064604 53 342 4.0 6.0 0.00 0.00 0.00 80 999.1
20260505064405 53 351 4.0 6.0 0.00 0.00 0.00 80 999.4
20260505064004 53 359 4.0 6.0 0.00 0.00 0.00 81 999.3
20260505063804 53 5 3.0 4.0 0.00 0.00 0.00 81 999.2
20260505063605 53 7 4.0 5.0 0.00 0.00 0.00 81 999.1
20260505063404 53 353 4.0 5.0 0.00 0.00 0.00 82 999.3
20260505063204 53 354 3.0 5.0 0.00 0.00 0.00 82 999.3
20260505062805 53 348 3.0 5.0 0.00 0.00 0.00 83 999.2
20260505062404 53 337 1.0 4.0 0.00 0.00 0.00 84 999.3
20260505062004 53 323 1.0 2.0 0.00 0.00 0.00 84 999.2
20260505061805 53 331 1.0 2.0 0.00 0.00 0.00 84 999.2
20260505061604 52 342 1.0 3.0 0.00 0.00 0.00 84 999.2
20260505061404 52 351 1.0 3.0 0.00 0.00 0.00 84 999.2
20260505061204 52 350 1.0 3.0 0.00 0.00 0.00 84 999.2
20260505061005 52 349 1.0 3.0 0.00 0.00 0.00 84 999.2
20260505060804 52 350 1.0 3.0 0.00 0.00 0.00 85 999.2
20260505060604 52 43 1.0 3.0 0.00 0.00 0.00 85 999.2
20260505060005 52 85 1.0 2.0 0.00 0.00 0.00 85 999.3
20260505055804 52 95 1.0 2.0 0.00 0.00 0.00 85 999.3
20260505055604 52 99 1.0 2.0 0.00 0.00 0.00 85 999.4
20260505055404 52 80 0.0 2.0 0.00 0.00 0.00 85 999.3
20260505055205 52 0 0.0 0.0 0.00 0.00 0.00 85 999.3
20260505055004 51 0 0.0 0.0 0.00 0.00 0.00 85 999.4
20260505054804 51 1 0.0 2.0 0.00 0.00 0.00 85 999.2
20260505054604 51 345 1.0 2.0 0.00 0.00 0.00 85 999.3
20260505054404 51 340 1.0 3.0 0.00 0.00 0.00 85 999.5
20260505054205 51 350 1.0 3.0 0.00 0.00 0.00 85 999.4
20260505054004 51 350 1.0 3.0 0.00 0.00 0.00 85 999.4
20260505053804 51 348 1.0 3.0 0.00 0.00 0.00 85 999.4
20260505053604 51 355 1.0 3.0 0.00 0.00 0.00 85 999.5
20260505053405 51 90 0.0 2.0 0.00 0.00 0.00 85 999.5
20260505053204 51 0 0.0 0.0 0.00 0.00 0.00 85 999.4
20260505053004 51 0 0.0 0.0 0.00 0.00 0.00 85 999.4
20260505052804 51 0 0.0 0.0 0.00 0.00 0.00 85 999.4
20260505052605 51 323 0.0 1.0 0.00 0.00 0.00 85 999.4
20260505052404 51 321 0.0 1.0 0.00 0.00 0.00 85 999.4
20260505052204 51 321 0.0 1.0 0.00 0.00 0.00 85 999.4
20260505051805 51 321 0.0 1.0 0.00 0.00 0.00 85 999.4
20260505051604 51 314 0.0 1.0 0.00 0.00 0.00 85 999.4
20260505051404 51 0 0.0 0.0 0.00 0.00 0.00 85 999.4
20260505051204 51 0 0.0 0.0 0.00 0.00 0.00 85 999.5
20260505050805 51 337 0.0 2.0 0.00 0.00 0.00 85 999.3
20260505050604 50 337 0.0 2.0 0.00 0.00 0.00 85 999.5
20260505050404 50 337 0.0 2.0 0.00 0.00 0.00 84 999.4
20260505041604 50 0 0.0 0.0 0.00 0.00 0.00 84 999.3
20260505041404 50 0 0.0 0.0 0.00 0.00 0.00 84 999.3
20260505041204 50 0 0.0 0.0 0.00 0.00 0.00 84 999.5
20260505041004 50 0 0.0 0.0 0.00 0.00 0.00 84 999.3
20260505040805 50 0 0.0 0.0 0.00 0.00 0.00 84 999.4
20260505040604 50 0 0.0 0.0 0.00 0.00 0.00 84 999.3
20260505040404 50 0 0.0 0.0 0.00 0.00 0.00 84 999.4
20260505035805 50 0 0.0 0.0 0.00 0.00 0.00 84 999.5
20260505035604 50 0 0.0 0.0 0.00 0.00 0.00 84 999.5
20260505035404 50 0 0.0 0.0 0.00 0.00 0.00 84 999.3
20260505035204 50 0 0.0 0.0 0.00 0.00 0.00 84 999.5
20260505034805 50 0 0.0 0.0 0.00 0.00 0.00 84 999.4
20260505034404 50 0 0.0 0.0 0.00 0.00 0.00 84 999.6
20260505034204 50 0 0.0 0.0 0.00 0.00 0.00 84 999.5
20260505034004 50 0 0.0 0.0 0.00 0.00 0.00 84 999.4
20260505033805 50 0 0.0 0.0 0.00 0.00 0.00 84 999.5
20260505033604 50 0 0.0 0.0 0.00 0.00 0.00 84 999.6
20260505033404 50 0 0.0 0.0 0.00 0.00 0.00 84 999.5
20260505033204 50 0 0.0 0.0 0.00 0.00 0.00 84 999.5
20260505033004 50 0 0.0 0.0 0.00 0.00 0.00 84 999.7
20260505032604 50 0 0.0 0.0 0.00 0.00 0.00 84 999.6
20260505032404 50 0 0.0 0.0 0.00 0.00 0.00 84 999.7
20260505032204 50 0 0.0 0.0 0.00 0.00 0.00 84 999.6
20260505031604 50 0 0.0 0.0 0.00 0.00 0.00 84 999.6
20260505031404 50 0 0.0 0.0 0.00 0.00 0.00 84 999.6
20260505031204 50 0 0.0 0.0 0.00 0.00 0.00 84 999.6
20260505031005 50 0 0.0 0.0 0.00 0.00 0.00 84 999.6
20260505030804 50 0 0.0 0.0 0.00 0.00 0.00 84 999.7
20260505030604 50 0 0.0 0.0 0.00 0.00 0.00 84 999.7
20260505030204 50 0 0.0 0.0 0.00 0.00 0.00 84 999.7
20260505030004 50 0 0.0 0.0 0.00 0.00 0.00 84 999.8
20260505025804 50 0 0.0 0.0 0.00 0.00 0.00 84 999.7
20260505025404 50 0 0.0 0.0 0.00 0.00 0.00 84 999.7
20260505025005 50 0 0.0 0.0 0.00 0.00 0.00 84 999.7
20260505024804 50 0 0.0 0.0 0.00 0.00 0.00 84 999.7
20260505024604 50 0 0.0 0.0 0.00 0.00 0.00 84 999.6
20260505024204 50 0 0.0 0.0 0.00 0.00 0.00 84 999.5
20260505024004 50 0 0.0 0.0 0.00 0.00 0.00 84 999.6
20260505023805 50 18 0.0 2.0 0.00 0.00 0.00 84 999.7
20260505023604 50 18 0.0 2.0 0.00 0.00 0.00 84 999.5
20260505023005 50 306 1.0 2.0 0.00 0.00 0.00 84 999.7
20260505022804 50 248 0.0 2.0 0.00 0.00 0.00 84 999.6
20260505022604 50 279 1.0 2.0 0.00 0.00 0.00 84 999.7
20260505022404 50 289 1.0 2.0 0.00 0.00 0.00 84 999.6
20260505022004 50 288 1.0 2.0 0.00 0.00 0.00 84 999.6
20260505021804 50 287 1.0 2.0 0.00 0.00 0.00 84 999.5
20260505021404 50 306 1.0 2.0 0.00 0.00 0.00 84 999.6
20260505021204 50 309 1.0 2.0 0.00 0.00 0.00 84 999.7
20260505020604 50 90 1.0 2.0 0.00 0.00 0.00 83 999.9
20260505020404 50 93 0.0 2.0 0.00 0.00 0.00 83 999.8
20260505020004 50 135 0.0 2.0 0.00 0.00 0.00 83 999.9
20260505015804 50 0 0.0 0.0 0.00 0.00 0.00 83 1000.0
20260505015204 50 0 0.0 0.0 0.00 0.00 0.00 83 1000.0
20260505015004 50 0 0.0 0.0 0.00 0.00 0.00 83 999.9
20260505014605 50 0 0.0 0.0 0.00 0.00 0.00 83 1000.1
20260505014404 50 0 0.0 0.0 0.00 0.00 0.00 83 1000.1
20260505014204 50 0 0.0 0.0 0.00 0.00 0.00 83 1000.1
20260505013804 50 0 0.0 0.0 0.00 0.00 0.00 83 1000.2
20260505013604 50 0 0.0 0.0 0.00 0.00 0.00 83 1000.2
20260505013404 50 0 0.0 0.0 0.00 0.00 0.00 83 1000.2
20260505013204 51 0 0.0 0.0 0.00 0.00 0.00 83 1000.1
20260505012804 51 0 0.0 0.0 0.00 0.00 0.00 83 1000.1
20260505012605 51 0 0.0 0.0 0.00 0.00 0.00 83 1000.0
20260505012404 51 0 0.0 0.0 0.00 0.00 0.00 83 1000.2
20260505012204 51 0 0.0 0.0 0.00 0.00 0.00 83 1000.1
20260505012004 51 0 0.0 0.0 0.00 0.00 0.00 83 1000.2
20260505011605 51 0 0.0 0.0 0.00 0.00 0.00 83 1000.2
20260505011404 51 0 0.0 0.0 0.00 0.00 0.00 83 1000.2
20260505011204 51 0 0.0 0.0 0.00 0.00 0.00 83 1000.1
20260505010804 51 0 0.0 0.0 0.00 0.00 0.00 83 1000.0
20260505010604 51 0 0.0 0.0 0.00 0.00 0.00 83 1000.1
20260505010405 51 0 0.0 0.0 0.00 0.00 0.00 83 1000.2
20260505010204 52 314 0.0 1.0 0.00 0.00 0.00 83 1000.3
20260505010004 52 314 0.0 1.0 0.00 0.00 0.00 83 1000.2
20260505005804 52 295 0.0 1.0 0.00 0.00 0.00 83 1000.1
20260505005405 52 348 0.0 2.0 0.00 0.00 0.00 83 1000.2
20260505005204 52 347 1.0 2.0 0.00 0.00 0.00 83 1000.2
20260505005004 52 18 1.0 2.0 0.00 0.00 0.00 83 1000.2
20260505004804 52 37 1.0 2.0 0.00 0.00 0.00 82 1000.3
20260505004604 52 24 1.0 2.0 0.00 0.00 0.00 82 1000.2
20260505004404 52 48 1.0 2.0 0.00 0.00 0.00 82 1000.4
20260505004204 52 75 1.0 2.0 0.00 0.00 0.00 82 1000.3
20260505004004 52 45 1.0 2.0 0.00 0.00 0.00 82 1000.3
20260505003604 52 27 1.0 2.0 0.00 0.00 0.00 82 1000.2
20260505003404 52 40 1.0 3.0 0.00 0.00 0.00 82 1000.2
20260505003204 52 3 1.0 3.0 0.00 0.00 0.00 82 1000.4
20260505003004 52 352 1.0 3.0 0.00 0.00 0.00 82 1000.1
20260505002804 52 27 1.0 3.0 0.00 0.00 0.00 82 1000.3
20260505002404 53 40 2.0 3.0 0.00 0.00 0.00 82 1000.4
20260505002204 53 64 2.0 3.0 0.00 0.00 0.00 82 1000.4